| time (UTC) | temp C | wind direction | speed KPH | gust KPH | rain 1hr cm | rain 24hr cm | rain mn cm | humidity % | barometer mb |
| 20260903193516 | 34 | 135 | 1.6 | 3.2 | 0.00 | 0.00 | 0.00 | 51 | 1020.5 |
| 20260903192516 | 34 | 135 | 1.6 | 3.2 | 0.00 | 0.00 | 0.00 | 51 | 1020.6 |
| 20260903191516 | 35 | 158 | 1.6 | 3.2 | 0.00 | 0.00 | 0.00 | 50 | 1020.6 |
| 20260903190516 | 35 | 0.0 | 1.6 | 0.00 | 0.00 | 0.00 | 49 | 1020.8 | |
| 20260903185516 | 36 | 158 | 1.6 | 4.8 | 0.00 | 0.00 | 0.00 | 47 | 1020.9 |
| 20260903184516 | 36 | 0.0 | 1.6 | 0.00 | 0.00 | 0.00 | 45 | 1020.9 | |
| 20260903183536 | 35 | 158 | 1.6 | 1.6 | 0.00 | 0.00 | 0.00 | 47 | 1020.9 |
| 20260903182536 | 34 | 0.0 | 1.6 | 0.00 | 0.00 | 0.00 | 50 | 1021.2 | |
| 20260903181516 | 33 | 0.0 | 1.6 | 0.00 | 0.00 | 0.00 | 52 | 1021.2 | |
| 20260903180516 | 33 | 0.0 | 3.2 | 0.00 | 0.00 | 0.00 | 51 | 1021.2 | |
| 20260903175516 | 33 | 0.0 | 0.0 | 0.00 | 0.00 | 0.00 | 53 | 1021.5 | |
| 20260903174516 | 33 | 0.0 | 0.0 | 0.00 | 0.00 | 0.00 | 50 | 1021.6 | |
| 20260903173516 | 33 | 0.0 | 1.6 | 0.00 | 0.00 | 0.00 | 51 | 1021.8 | |
| 20260903172516 | 33 | 0.0 | 1.6 | 0.00 | 0.00 | 0.00 | 52 | 1021.8 | |
| 20260903171516 | 32 | 0.0 | 1.6 | 0.00 | 0.00 | 0.00 | 58 | 1022.0 | |
| 20260903170516 | 32 | 0.0 | 1.6 | 0.00 | 0.00 | 0.00 | 57 | 1022.1 | |
| 20260903165516 | 32 | 0.0 | 1.6 | 0.00 | 0.00 | 0.00 | 54 | 1022.3 | |
| 20260903164516 | 31 | 23 | 1.6 | 6.4 | 0.00 | 0.00 | 0.00 | 54 | 1022.3 |
| 20260903163536 | 31 | 0.0 | 4.8 | 0.00 | 0.00 | 0.00 | 56 | 1022.2 | |
| 20260903162536 | 30 | 0.0 | 3.2 | 0.00 | 0.00 | 0.00 | 60 | 1022.2 | |
| 20260903161536 | 30 | 0.0 | 1.6 | 0.00 | 0.00 | 0.00 | 65 | 1022.3 | |
| 20260903160516 | 30 | 0 | 1.6 | 4.8 | 0.00 | 0.00 | 0.00 | 62 | 1022.4 |
| 20260903155516 | 30 | 0.0 | 1.6 | 0.00 | 0.00 | 0.00 | 65 | 1022.5 | |
| 20260903154516 | 29 | 0.0 | 1.6 | 0.00 | 0.00 | 0.00 | 68 | 1022.4 | |
| 20260903153516 | 28 | 0.0 | 1.6 | 0.00 | 0.00 | 0.00 | 70 | 1022.4 | |
| 20260903152536 | 27 | 0.0 | 0.0 | 0.00 | 0.00 | 0.00 | 73 | 1022.3 | |
| 20260903151516 | 27 | 0.0 | 0.0 | 0.00 | 0.00 | 0.00 | 75 | 1022.3 | |
| 20260903150516 | 26 | 0.0 | 0.0 | 0.00 | 0.00 | 0.00 | 76 | 1022.2 | |
| 20260903145516 | 26 | 0.0 | 0.0 | 0.00 | 0.00 | 0.00 | 78 | 1022.3 | |
| 20260903144516 | 25 | 0.0 | 1.6 | 0.00 | 0.00 | 0.00 | 80 | 1022.3 | |
| 20260903143516 | 25 | 0.0 | 1.6 | 0.00 | 0.00 | 0.00 | 82 | 1022.2 | |
| 20260903142516 | 24 | 0.0 | 0.0 | 0.00 | 0.00 | 0.00 | 85 | 1022.3 | |
| 20260903141516 | 23 | 0.0 | 0.0 | 0.00 | 0.00 | 0.00 | 86 | 1022.2 | |
| 20260903140515 | 23 | 0.0 | 0.0 | 0.00 | 0.00 | 0.00 | 88 | 1022.1 | |
| 20260903135516 | 22 | 0.0 | 0.0 | 0.00 | 0.00 | 0.00 | 89 | 1022.1 | |
| 20260903134515 | 22 | 0.0 | 0.0 | 0.00 | 0.00 | 0.00 | 89 | 1022.1 | |
| 20260903133516 | 22 | 0.0 | 0.0 | 0.00 | 0.00 | 0.00 | 89 | 1022.1 | |
| 20260903132515 | 21 | 0.0 | 0.0 | 0.00 | 0.00 | 0.00 | 89 | 1022.1 | |
| 20260903131536 | 21 | 0.0 | 0.0 | 0.00 | 0.00 | 0.00 | 87 | 1021.9 | |
| 20260903130516 | 21 | 0.0 | 0.0 | 0.00 | 0.00 | 0.00 | 84 | 1021.9 | |
| 20260903125516 | 20 | 0.0 | 0.0 | 0.00 | 0.00 | 0.00 | 83 | 1022.0 | |
| 20260903124515 | 20 | 0.0 | 0.0 | 0.00 | 0.00 | 0.00 | 84 | 1022.1 | |
| 20260903123515 | 20 | 0.0 | 0.0 | 0.00 | 0.00 | 0.00 | 85 | 1022.0 | |
| 20260903122516 | 20 | 0.0 | 0.0 | 0.00 | 0.00 | 0.00 | 86 | 1022.2 | |
| 20260903121515 | 20 | 0.0 | 0.0 | 0.00 | 0.00 | 0.00 | 86 | 1022.3 | |
| 20260903120516 | 20 | 0.0 | 0.0 | 0.00 | 0.00 | 0.00 | 87 | 1022.1 | |
| 20260903115515 | 20 | 0.0 | 0.0 | 0.00 | 0.00 | 0.00 | 87 | 1022.2 | |
| 20260903114515 | 20 | 0.0 | 0.0 | 0.00 | 0.00 | 0.00 | 88 | 1022.2 | |
| 20260903113515 | 20 | 0.0 | 0.0 | 0.00 | 0.00 | 0.00 | 88 | 1022.0 | |
| 20260903112515 | 20 | 0.0 | 0.0 | 0.00 | 0.00 | 0.00 | 88 | 1022.0 | |
| 20260903111536 | 20 | 0.0 | 0.0 | 0.00 | 0.00 | 0.00 | 88 | 1021.9 | |
| 20260903110515 | 20 | 0.0 | 0.0 | 0.00 | 0.00 | 0.00 | 88 | 1021.7 | |
| 20260903105515 | 20 | 0.0 | 0.0 | 0.00 | 0.00 | 0.00 | 87 | 1021.7 | |
| 20260903104515 | 20 | 0.0 | 0.0 | 0.00 | 0.00 | 0.00 | 87 | 1021.7 | |
| 20260903103515 | 20 | 0.0 | 0.0 | 0.00 | 0.00 | 0.00 | 87 | 1021.6 | |
| 20260903102516 | 20 | 0.0 | 0.0 | 0.00 | 0.00 | 0.00 | 87 | 1021.7 | |
| 20260903101515 | 20 | 0.0 | 0.0 | 0.00 | 0.00 | 0.00 | 87 | 1021.7 | |
| 20260903100515 | 20 | 0.0 | 0.0 | 0.00 | 0.00 | 0.00 | 88 | 1021.7 | |
| 20260903095515 | 20 | 0.0 | 0.0 | 0.00 | 0.00 | 0.00 | 88 | 1021.8 | |
| 20260903094515 | 20 | 0.0 | 0.0 | 0.00 | 0.00 | 0.00 | 88 | 1021.8 | |
| 20260903093515 | 20 | 0.0 | 0.0 | 0.00 | 0.00 | 0.00 | 88 | 1021.8 | |
| 20260903092517 | 20 | 0.0 | 0.0 | 0.00 | 0.00 | 0.00 | 88 | 1022.0 | |
| 20260903091517 | 20 | 0.0 | 0.0 | 0.00 | 0.00 | 0.00 | 88 | 1021.9 | |
| 20260903090517 | 20 | 0.0 | 0.0 | 0.00 | 0.00 | 0.00 | 88 | 1021.8 | |
| 20260903085517 | 20 | 0.0 | 0.0 | 0.00 | 0.00 | 0.00 | 89 | 1021.8 | |
| 20260903084517 | 20 | 0.0 | 0.0 | 0.00 | 0.00 | 0.00 | 89 | 1021.8 | |
| 20260903083540 | 20 | 0.0 | 0.0 | 0.00 | 0.00 | 0.00 | 89 | 1021.8 | |
| 20260903082517 | 20 | 0.0 | 0.0 | 0.00 | 0.00 | 0.00 | 89 | 1021.8 | |
| 20260903081517 | 20 | 0.0 | 0.0 | 0.00 | 0.00 | 0.00 | 89 | 1021.8 | |
| 20260903080517 | 20 | 0.0 | 0.0 | 0.00 | 0.00 | 0.00 | 89 | 1021.8 | |
| 20260903075537 | 20 | 0.0 | 0.0 | 0.00 | 0.00 | 0.00 | 89 | 1021.6 | |
| 20260903074517 | 21 | 0.0 | 0.0 | 0.00 | 0.00 | 0.00 | 89 | 1021.7 | |
| 20260903073517 | 21 | 0.0 | 0.0 | 0.00 | 0.00 | 0.00 | 89 | 1021.9 | |
| 20260903072517 | 21 | 0.0 | 0.0 | 0.00 | 0.00 | 0.00 | 89 | 1021.8 | |
| 20260903071517 | 21 | 0.0 | 0.0 | 0.00 | 0.00 | 0.00 | 89 | 1021.7 | |
| 20260903070517 | 21 | 0.0 | 0.0 | 0.00 | 0.00 | 0.00 | 89 | 1021.6 | |
| 20260903065537 | 21 | 0.0 | 0.0 | 0.00 | 0.00 | 0.00 | 89 | 1021.4 | |
| 20260903064517 | 21 | 0.0 | 0.0 | 0.00 | 0.00 | 0.00 | 89 | 1021.8 | |
| 20260903063517 | 21 | 0.0 | 0.0 | 0.00 | 0.00 | 0.00 | 89 | 1021.7 | |
| 20260903062517 | 21 | 0.0 | 0.0 | 0.00 | 0.00 | 0.00 | 89 | 1021.7 | |
| 20260903061517 | 21 | 0.0 | 0.0 | 0.00 | 0.00 | 0.00 | 89 | 1021.9 | |
| 20260903060537 | 21 | 0.0 | 0.0 | 0.00 | 0.00 | 0.00 | 89 | 1022.0 | |
| 20260903055517 | 21 | 0.0 | 0.0 | 0.00 | 0.00 | 0.00 | 89 | 1022.1 | |
| 20260903054517 | 21 | 0.0 | 0.0 | 0.00 | 0.00 | 0.00 | 89 | 1022.1 | |
| 20260903053517 | 21 | 0.0 | 0.0 | 0.00 | 0.00 | 0.00 | 89 | 1022.1 | |
| 20260903052517 | 22 | 0.0 | 0.0 | 0.00 | 0.00 | 0.00 | 88 | 1022.0 | |
| 20260903051517 | 22 | 0.0 | 0.0 | 0.00 | 0.00 | 0.00 | 88 | 1022.0 | |
| 20260903050517 | 22 | 0.0 | 0.0 | 0.00 | 0.00 | 0.00 | 88 | 1022.0 | |
| 20260903045517 | 22 | 0.0 | 0.0 | 0.00 | 0.00 | 0.00 | 88 | 1021.9 | |
| 20260903044517 | 22 | 0.0 | 1.6 | 0.00 | 0.00 | 0.00 | 88 | 1022.0 | |
| 20260903043517 | 22 | 0.0 | 0.0 | 0.00 | 0.00 | 0.00 | 87 | 1022.1 | |
| 20260903042519 | 22 | 0.0 | 0.0 | 0.00 | 0.00 | 0.00 | 87 | 1021.8 | |
| 20260903041537 | 22 | 0.0 | 0.0 | 0.00 | 0.00 | 0.00 | 86 | 1021.8 | |
| 20260903040516 | 22 | 0.0 | 0.0 | 0.00 | 0.00 | 0.00 | 86 | 1022.0 | |
| 20260903035517 | 23 | 0.0 | 0.0 | 0.00 | 0.00 | 0.00 | 85 | 1021.8 | |
| 20260903034517 | 23 | 0.0 | 0.0 | 0.00 | 0.00 | 0.00 | 85 | 1021.9 | |
| 20260903033517 | 23 | 0.0 | 0.0 | 0.00 | 0.00 | 0.00 | 84 | 1022.0 | |
| 20260903032517 | 23 | 0.0 | 0.0 | 0.00 | 0.00 | 0.00 | 83 | 1021.9 | |
| 20260903031517 | 23 | 0.0 | 0.0 | 0.00 | 0.00 | 0.00 | 83 | 1022.1 | |
| 20260903030517 | 23 | 0.0 | 0.0 | 0.00 | 0.00 | 0.00 | 83 | 1021.9 | |
| 20260903025517 | 23 | 0.0 | 0.0 | 0.00 | 0.00 | 0.00 | 82 | 1021.8 | |
| 20260903024516 | 24 | 0.0 | 0.0 | 0.00 | 0.00 | 0.00 | 82 | 1021.8 | |
| 20260903023517 | 24 | 0.0 | 0.0 | 0.00 | 0.00 | 0.00 | 82 | 1021.9 | |
| 20260903022517 | 24 | 0.0 | 0.0 | 0.00 | 0.00 | 0.00 | 82 | 1021.8 | |
| 20260903021517 | 24 | 0.0 | 0.0 | 0.00 | 0.00 | 0.00 | 82 | 1021.7 | |
| 20260903020517 | 24 | 0.0 | 0.0 | 0.00 | 0.00 | 0.00 | 82 | 1021.6 | |
| 20260903015516 | 25 | 0.0 | 0.0 | 0.00 | 0.00 | 0.00 | 81 | 1021.4 | |
| 20260903014517 | 25 | 0.0 | 0.0 | 0.00 | 0.00 | 0.00 | 80 | 1021.4 | |
| 20260903013517 | 25 | 0.0 | 0.0 | 0.00 | 0.00 | 0.00 | 79 | 1021.1 | |
| 20260903012516 | 25 | 0.0 | 0.0 | 0.00 | 0.00 | 0.00 | 79 | 1021.0 | |
| 20260903011516 | 25 | 0.0 | 1.6 | 0.00 | 0.00 | 0.00 | 78 | 1020.9 | |
| 20260903010516 | 26 | 0.0 | 0.0 | 0.00 | 0.00 | 0.00 | 77 | 1020.8 | |
| 20260903005516 | 26 | 0.0 | 0.0 | 0.00 | 0.00 | 0.00 | 75 | 1020.5 | |
| 20260903004516 | 26 | 0.0 | 0.0 | 0.00 | 0.00 | 0.00 | 73 | 1020.3 | |
| 20260903003516 | 26 | 0.0 | 0.0 | 0.00 | 0.00 | 0.00 | 73 | 1020.1 | |
| 20260903002517 | 27 | 0.0 | 0.0 | 0.00 | 0.00 | 0.00 | 72 | 1020.0 | |
| 20260903001516 | 27 | 0.0 | 0.0 | 0.00 | 0.00 | 0.00 | 71 | 1020.0 | |
| 20260903000516 | 27 | 0.0 | 0.0 | 0.00 | 0.00 | 0.00 | 71 | 1019.9 | |
| 20260902235516 | 27 | 0.0 | 0.0 | 0.00 | 0.00 | 0.00 | 70 | 1020.0 | |
| 20260902234516 | 28 | 0.0 | 0.0 | 0.00 | 0.00 | 0.00 | 68 | 1020.0 | |
| 20260902233516 | 28 | 0.0 | 0.0 | 0.00 | 0.00 | 0.00 | 67 | 1020.0 | |
| 20260902232517 | 28 | 0.0 | 0.0 | 0.00 | 0.00 | 0.00 | 65 | 1020.1 | |
| 20260902231516 | 29 | 0.0 | 0.0 | 0.00 | 0.00 | 0.00 | 64 | 1020.0 | |
| 20260902230516 | 30 | 0.0 | 0.0 | 0.00 | 0.00 | 0.00 | 62 | 1020.2 | |
| 20260902225516 | 30 | 0.0 | 1.6 | 0.00 | 0.00 | 0.00 | 60 | 1020.3 | |
| 20260902224516 | 31 | 0.0 | 3.2 | 0.00 | 0.00 | 0.00 | 58 | 1020.3 | |
| 20260902223516 | 31 | 0.0 | 1.6 | 0.00 | 0.00 | 0.00 | 57 | 1020.5 | |
| 20260902222516 | 31 | 0.0 | 3.2 | 0.00 | 0.00 | 0.00 | 53 | 1020.6 | |
| 20260902221516 | 31 | 23 | 1.6 | 4.8 | 0.00 | 0.00 | 0.00 | 51 | 1020.7 |
| 20260902220537 | 32 | 23 | 1.6 | 4.8 | 0.00 | 0.00 | 0.00 | 52 | 1020.7 |
| 20260902215516 | 32 | 23 | 3.2 | 6.4 | 0.00 | 0.00 | 0.00 | 48 | 1020.8 |
| 20260902214516 | 32 | 0.0 | 3.2 | 0.00 | 0.00 | 0.00 | 49 | 1020.8 | |
| 20260902213516 | 32 | 23 | 1.6 | 6.4 | 0.00 | 0.00 | 0.00 | 46 | 1020.7 |
| 20260902212516 | 33 | 0.0 | 1.6 | 0.00 | 0.00 | 0.00 | 51 | 1020.9 | |
| 20260902211516 | 33 | 0.0 | 1.6 | 0.00 | 0.00 | 0.00 | 48 | 1021.0 | |
| 20260902210516 | 33 | 23 | 1.6 | 3.2 | 0.00 | 0.00 | 0.00 | 44 | 1021.0 |
| 20260902205516 | 34 | 0.0 | 3.2 | 0.00 | 0.00 | 0.00 | 42 | 1021.2 | |
| 20260902204516 | 35 | 45 | 1.6 | 3.2 | 0.00 | 0.00 | 0.00 | 40 | 1021.1 |
| 20260902203536 | 35 | 0.0 | 1.6 | 0.00 | 0.00 | 0.00 | 38 | 1021.2 | |
| 20260902202516 | 35 | 23 | 1.6 | 6.4 | 0.00 | 0.00 | 0.00 | 40 | 1021.1 |
| 20260902201516 | 35 | 0 | 1.6 | 6.4 | 0.00 | 0.00 | 0.00 | 39 | 1021.5 |
| 20260902200516 | 35 | 0.0 | 3.2 | 0.00 | 0.00 | 0.00 | 41 | 1021.4 | |
| 20260902195516 | 35 | 23 | 1.6 | 3.2 | 0.00 | 0.00 | 0.00 | 38 | 1021.6 |
| 20260902194516 | 35 | 0.0 | 3.2 | 0.00 | 0.00 | 0.00 | 42 | 1021.8 |